Miscellaneous Local Product
Issued by NWS Hastings, NE

Home | Current Version | Previous Version | Text Only | Print | Product List | Glossary Off
Versions: 1 2 3 4 5 6 7 8 9 10 11 12 13 14 15 16 17 18 19 20 21 22 23 24 25 26 27 28 29 30 31 32 33 34 35 36 37 38 39 40 41 42 43 44 45 46 47 48 49 50

000
AXUS43 KGID 270802
MISGRI

GID CWA HOURLY WEATHER ROUNDUP
NATIONAL WEATHER SERVICE HASTINGS NE
300 AM CDT MON APR 27 2015

NOTE: "FAIR" INDICATES FEW OR NO CLOUDS BELOW 12,000 FEET WITH NO
SIGNIFICANT WEATHER AND/OR OBSTRUCTIONS TO VISIBILITY.

...SOUTH CENTRAL NEBRASKA...

CITY           SKY/WX    TMP DP  RH WIND       PRES   REMARKS
GRAND ISLAND   CLOUDY    38  34  85 NW6       30.12R WCI  33
HASTINGS       PTCLDY    38  34  85 N3        30.10S
KEARNEY        MOCLDY    39  36  87 NW7       30.11F WCI  34
ORD            MOCLDY    35  31  85 N3        30.12R
YORK           MOCLDY    39  36  87 N8        30.11R WCI  34
AURORA         MOCLDY    39  36  89 N6        30.11S WCI  35
LEXINGTON      MOCLDY    38  35  91 NW3       30.12F
HOLDREGE       PTCLDY    39  36  88 N3        30.11S
HEBRON         CLEAR     38  34  85 CALM      30.10R

...NEBRASKA PANHANDLE...

CITY           SKY/WX    TMP DP  RH WIND       PRES   REMARKS
CHADRON        CLOUDY    41  39  93 CALM      30.16S
ALLIANCE       CLOUDY    43  40  89 CALM      30.15R
SCOTTSBLUFF    CLOUDY    44  32  62 CALM      30.15F
SIDNEY         CLOUDY    43  40  89 E3        30.14S

...WESTERN AND NORTH CENTRAL NEBRASKA...

CITY           SKY/WX    TMP DP  RH WIND       PRES   REMARKS
VALENTINE      PTCLDY    35  31  85 NW7       30.15S WCI  29
AINSWORTH      CLEAR     38  30  73 W3        30.15S
ONEILL         CLEAR     41  33  73 CALM      30.14S
BROKEN BOW     PTCLDY    35  31  85 N3        30.13S
IMPERIAL       CLOUDY    46  42  86 NE7       30.12S
NORTH PLATTE   NOT AVBL
MCCOOK         PTCLDY    45  41  86 NE9       30.10F

...EASTERN NEBRASKA...

CITY           SKY/WX    TMP DP  RH WIND       PRES   REMARKS
NORFOLK        CLEAR     35  32  88 W3        30.12S
SO SIOUX CITY  CLEAR     37  26  64 NW3       30.14S
TEKAMAH        CLEAR     39  34  82 N10       30.11F WCI  32
COLUMBUS       MOCLDY    41  32  70 CALM      30.13R
ALBION         PTCLDY    34  31  90 NW5       30.13R WCI  30
OMAHA EPPLEY   PTCLDY    40  36  86 NW6       30.10S
OFFUTT AFB     FAIR      43  33  69 NE5       30.10R
MILLARD        PTCLDY    44  36  74 CALM      30.11R
LINCOLN        MOCLDY    37  33  85 N5        30.12R WCI  33
NEBRASKA CITY  PTCLDY    46  29  51 CALM      30.10S
BEATRICE       PTCLDY    42  34  75 NE5       30.09S
FALLS CITY     CLEAR     45  31  58 NE3       30.08R

...NORTHERN KANSAS...

CITY           SKY/WX    TMP DP  RH WIND       PRES   REMARKS
GOODLAND       CLOUDY    44  43  96 NE9       30.08S
HILL CITY      PTCLDY    45  42  89 N14       30.07S
NORTON         SUNNY     41  37  87 N8        30.08F
PHILLIPSBURG   CLEAR     48  39  71 N10       30.08F
SMITH CENTER   CLEAR     43  36  75 NE10      30.08F
HAYS           CLOUDY    46  36  66 NE12      30.04R
RUSSELL        CLOUDY    44  41  89 NE9       30.03S
CONCORDIA      PTCLDY    44  35  70 NE6       30.07S
SALINA         CLOUDY    48  40  73 N7        30.04R
TOPEKA         MOCLDY    46  38  73 NE5       30.05R



USA.gov is the U.S. government's official web portal to all federal, state and local government web resources and services.